Location: Eaton
(41.3139°N, 82.0207°W)
Time: 13:14:10
(UTC+00:00)

UNK - Pass Details

Date: 17 June 2021
Orbit: 667 x 685 km, 98.2° (Epoch: 26 July)

Event Time Altitude Azimuth Distance (km) Brightness Sun altitude
Exits shadow 07:20:55 40° 168° (SSE) 988 4.2 -20.3°
Maximum altitude 07:22:34 88° 250° (WSW) 679 3.6 -20.1°
Drops below altitude 10° 07:27:13 10° 347° (NNW) 2,118 6.9 -19.7°
Sets 07:29:28 0° 347° (NNW) 3,039 7.9 -19.5°
